EA5DHO-13 Weather Reports


Display with metric or nautical units.
time (UTC)temp
F
wind
direction
speed
MPH
gust
MPH
rain 1hr
in
rain 24hr
in
rain mn
in
humidity
%
barometer
mb
20260905012425 77 0.0 2.0 0.00 0.00 0.00 87 1022.6
20260905011422 78 0.0 0.0 0.00 0.00 0.00 87 1022.6
20260905010419 78 0.0 2.0 0.00 0.00 0.00 86 1022.7
20260905005415 78 0 1.0 2.0 0.00 0.00 0.00 86 1022.8
20260905004512 78 0.0 0.0 0.00 0.00 0.00 86 1022.5
20260905003509 78 0.0 0.0 0.00 0.00 0.00 85 1022.5
20260905002526 78 0 0.0 2.0 0.00 0.00 0.00 85 1022.5
20260905001503 78 0 0.0 2.0 0.00 0.00 0.00 86 1022.6
20260905000459 78 0 2.0 2.0 0.00 0.00 0.00 86 1022.5
20260904235456 78 0 1.0 2.0 0.00 0.00 0.00 87 1022.6
20260904234454 79 0.0 0.0 0.00 0.00 0.00 87 1022.7
20260904233450 79 23 0.0 2.0 0.00 0.00 0.00 86 1022.7
20260904232446 79 0.0 2.0 0.00 0.00 0.00 86 1022.7
20260904231443 79 23 0.0 2.0 0.00 0.00 0.00 86 1022.7
20260904230440 79 0.0 2.0 0.00 0.00 0.00 85 1022.8
20260904225436 79 0.0 0.0 0.00 0.00 0.00 85 1022.6
20260904224433 79 0.0 0.0 0.00 0.00 0.00 85 1022.6
20260904223430 79 0.0 0.0 0.00 0.00 0.00 85 1022.5
20260904222447 79 0.0 0.0 0.00 0.00 0.00 86 1022.5
20260904221424 79 0.0 0.0 0.00 0.00 0.00 85 1022.4
20260904220420 80 23 1.0 2.0 0.00 0.00 0.00 85 1022.5
20260904215417 80 0.0 0.0 0.00 0.00 0.00 85 1022.5
20260904214514 80 23 1.0 2.0 0.00 0.00 0.00 84 1022.4
20260904213512 80 23 0.0 2.0 0.00 0.00 0.00 84 1022.4
20260904212508 80 0.0 0.0 0.00 0.00 0.00 84 1022.5
20260904211506 80 23 0.0 2.0 0.00 0.00 0.00 84 1022.7
20260904210502 80 0.0 2.0 0.00 0.00 0.00 84 1022.5
20260904205458 80 23 1.0 4.0 0.00 0.00 0.00 84 1022.7
20260904204455 80 45 1.0 2.0 0.00 0.00 0.00 83 1022.6
20260904203451 81 56 1.0 4.0 0.00 0.00 0.00 83 1022.6
20260904202449 81 69 3.0 6.0 0.00 0.00 0.00 82 1022.5
20260904201445 81 45 3.0 6.0 0.00 0.00 0.00 82 1022.4
20260904200502 81 55 1.0 4.0 0.00 0.00 0.00 81 1022.3
20260904195440 81 66 2.0 4.0 0.00 0.00 0.00 80 1022.2
20260904194435 81 45 1.0 4.0 0.00 0.00 0.00 80 1022.1
20260904193432 81 45 1.0 2.0 0.00 0.00 0.00 80 1021.9
20260904192450 81 23 1.0 4.0 0.00 0.00 0.00 80 1021.9
20260904191446 81 23 1.0 4.0 0.00 0.00 0.00 80 1021.9
20260904190423 81 45 2.0 4.0 0.00 0.00 0.00 79 1021.8
20260904185419 82 68 3.0 8.0 0.00 0.00 0.00 79 1021.6
20260904184437 82 28 3.0 7.0 0.00 0.00 0.00 78 1021.6
20260904183513 82 45 2.0 2.0 0.00 0.00 0.00 79 1021.4
20260904182510 82 82 1.0 4.0 0.00 0.00 0.00 79 1021.5
20260904181507 82 30 2.0 4.0 0.00 0.00 0.00 79 1021.5
20260904180503 82 23 1.0 2.0 0.00 0.00 0.00 78 1021.6
20260904175500 83 54 3.0 6.0 0.00 0.00 0.00 78 1021.5
20260904174457 83 55 2.0 7.0 0.00 0.00 0.00 79 1021.5
20260904173454 83 121 3.0 6.0 0.00 0.00 0.00 79 1021.5
20260904172421 83 45 4.0 8.0 0.00 0.00 0.00 78 1021.4
20260904171418 83 37 2.0 6.0 0.00 0.00 0.00 78 1021.5
20260904170514 83 32 3.0 4.0 0.00 0.00 0.00 78 1021.4
20260904165512 83 23 3.0 7.0 0.00 0.00 0.00 77 1021.3
20260904164507 83 18 3.0 7.0 0.00 0.00 0.00 77 1021.3
20260904163524 84 24 1.0 4.0 0.00 0.00 0.00 77 1021.4
20260904162501 85 45 2.0 4.0 0.00 0.00 0.00 75 1021.4
20260904161459 85 42 2.0 4.0 0.00 0.00 0.00 76 1021.5
20260904160454 86 65 2.0 4.0 0.00 0.00 0.00 74 1021.5
20260904155451 86 65 2.0 6.0 0.00 0.00 0.00 74 1021.6
20260904154448 86 90 2.0 4.0 0.00 0.00 0.00 72 1021.5
20260904153444 85 68 6.0 9.0 0.00 0.00 0.00 73 1021.3
20260904152442 84 94 5.0 7.0 0.00 0.00 0.00 75 1021.3
20260904151438 85 74 7.0 11.0 0.00 0.00 0.00 75 1021.4
20260904150435 84 82 8.0 14.0 0.00 0.00 0.00 75 1021.5
20260904145433 84 225 9.0 15.0 0.00 0.00 0.00 76 1021.5
20260904144429 84 113 10.0 18.0 0.00 0.00 0.00 77 1021.5
20260904143447 85 84 9.0 16.0 0.00 0.00 0.00 74 1021.5
20260904142442 84 68 13.0 16.0 0.00 0.00 0.00 76 1021.4
20260904141439 84 90 10.0 17.0 0.00 0.00 0.00 76 1021.5
20260904140417 84 97 11.0 16.0 0.00 0.00 0.00 76 1021.6
20260904135512 86 85 6.0 11.0 0.00 0.00 0.00 74 1021.7
20260904134510 86 52 11.0 16.0 0.00 0.00 0.00 70 1021.6
20260904133506 87 76 4.0 9.0 0.00 0.00 0.00 67 1021.7
20260904132503 87 75 7.0 13.0 0.00 0.00 0.00 67 1021.8
20260904131521 87 68 4.0 9.0 0.00 0.00 0.00 68 1022.0
20260904130456 87 125 5.0 9.0 0.00 0.00 0.00 68 1022.0
20260904125453 89 114 2.0 4.0 0.00 0.00 0.00 66 1022.1
20260904124450 87 102 7.0 14.0 0.00 0.00 0.00 67 1022.1
20260904123448 85 90 8.0 11.0 0.00 0.00 0.00 70 1022.2
20260904122443 86 90 10.0 11.0 0.00 0.00 0.00 71 1022.3
20260904121440 88 101 5.0 11.0 0.00 0.00 0.00 69 1022.5
20260904120438 85 129 6.0 9.0 0.00 0.00 0.00 71 1022.5
20260904115435 86 116 6.0 9.0 0.00 0.00 0.00 72 1022.6
20260904114431 87 104 6.0 9.0 0.00 0.00 0.00 69 1022.6
20260904113427 88 110 4.0 6.0 0.00 0.00 0.00 69 1022.7
20260904112424 87 105 7.0 13.0 0.00 0.00 0.00 69 1022.7
20260904111442 87 175 2.0 7.0 0.00 0.00 0.00 71 1022.8
20260904110417 87 132 6.0 11.0 0.00 0.00 0.00 70 1023.0
20260904105537 86 184 7.0 11.0 0.00 0.00 0.00 72 1023.0
20260904104511 87 90 6.0 11.0 0.00 0.00 0.00 70 1022.9
20260904103509 87 187 4.0 11.0 0.00 0.00 0.00 68 1023.1
20260904102505 88 139 4.0 9.0 0.00 0.00 0.00 65 1023.2
20260904101501 89 158 3.0 4.0 0.00 0.00 0.00 61 1023.2
20260904100458 89 125 3.0 6.0 0.00 0.00 0.00 59 1023.3
20260904095516 89 134 2.0 4.0 0.00 0.00 0.00 58 1023.2
20260904094452 91 125 1.0 2.0 0.00 0.00 0.00 53 1023.2
20260904093449 88 194 1.0 4.0 0.00 0.00 0.00 56 1023.2
20260904092505 87 233 4.0 6.0 0.00 0.00 0.00 56 1023.2
20260904091442 87 224 4.0 7.0 0.00 0.00 0.00 58 1023.2
20260904090439 86 158 2.0 4.0 0.00 0.00 0.00 59 1023.2
20260904085437 85 203 2.0 4.0 0.00 0.00 0.00 62 1023.2
20260904084434 86 180 0.0 2.0 0.00 0.00 0.00 63 1023.1
20260904083429 83 248 3.0 4.0 0.00 0.00 0.00 66 1023.1
20260904082426 82 248 3.0 4.0 0.00 0.00 0.00 68 1023.1
20260904081424 82 248 2.0 4.0 0.00 0.00 0.00 68 1023.0
20260904080420 81 248 2.0 4.0 0.00 0.00 0.00 69 1022.9
20260904075416 81 248 2.0 4.0 0.00 0.00 0.00 70 1023.0
20260904074514 81 248 0.0 2.0 0.00 0.00 0.00 70 1023.0
20260904073511 79 248 1.0 2.0 0.00 0.00 0.00 73 1023.0
20260904072506 78 248 1.0 2.0 0.00 0.00 0.00 76 1023.0
20260904071504 77 248 2.0 4.0 0.00 0.00 0.00 78 1023.1
20260904070522 76 248 3.0 4.0 0.00 0.00 0.00 81 1023.2
20260904065517 76 270 2.0 4.0 0.00 0.00 0.00 83 1023.2
20260904064454 75 248 2.0 4.0 0.00 0.00 0.00 85 1023.2
20260904063452 75 280 1.0 4.0 0.00 0.00 0.00 86 1023.2
20260904062447 75 256 3.0 6.0 0.00 0.00 0.00 86 1023.2
20260904061443 75 270 2.0 4.0 0.00 0.00 0.00 86 1023.2
20260904060500 75 270 1.0 2.0 0.00 0.00 0.00 85 1023.1
20260904055437 76 248 1.0 2.0 0.00 0.00 0.00 84 1023.0
20260904054433 76 0.0 0.0 0.00 0.00 0.00 84 1023.0
20260904053430 76 0.0 0.0 0.00 0.00 0.00 84 1023.1
20260904052427 76 0.0 0.0 0.00 0.00 0.00 84 1023.1
20260904051424 76 0.0 0.0 0.00 0.00 0.00 84 1023.1
20260904050421 76 0.0 0.0 0.00 0.00 0.00 84 1023.2
20260904045417 76 0.0 0.0 0.00 0.00 0.00 84 1023.2
20260904044534 76 0.0 0.0 0.00 0.00 0.00 84 1023.0
20260904043511 76 0.0 0.0 0.00 0.00 0.00 84 1023.2
20260904042508 76 0.0 0.0 0.00 0.00 0.00 84 1023.2
20260904041505 76 0.0 2.0 0.00 0.00 0.00 84 1023.2
20260904040501 76 0.0 0.0 0.00 0.00 0.00 84 1023.1
20260904035459 76 0.0 0.0 0.00 0.00 0.00 84 1023.2
20260904034456 76 0.0 0.0 0.00 0.00 0.00 84 1023.2
20260904033452 76 0.0 2.0 0.00 0.00 0.00 84 1023.3
20260904032448 76 248 1.0 2.0 0.00 0.00 0.00 83 1023.3
20260904031505 76 264 2.0 4.0 0.00 0.00 0.00 84 1023.3
20260904030442 77 248 2.0 4.0 0.00 0.00 0.00 83 1023.4
20260904025459 77 248 1.0 2.0 0.00 0.00 0.00 83 1023.3
20260904024435 77 248 1.0 2.0 0.00 0.00 0.00 83 1023.2
20260904023432 77 0.0 0.0 0.00 0.00 0.00 83 1023.3
20260904022429 77 248 2.0 2.0 0.00 0.00 0.00 83 1023.4
20260904021427 76 248 2.0 2.0 0.00 0.00 0.00 83 1023.5
20260904020422 76 262 1.0 4.0 0.00 0.00 0.00 85 1023.6
20260904015420 76 0.0 2.0 0.00 0.00 0.00 86 1023.6
20260904014437 77 270 2.0 2.0 0.00 0.00 0.00 86 1023.6
20260904013534 77 248 2.0 4.0 0.00 0.00 0.00 86 1023.7